When you browse on this site, cookies collect data to enhance your experience and personalize the content and advertising you see.
Visit our Privacy Policy to learn more. By continuing to use the site, you agree to this use of cookies and data.
  • In Czech Republic
  • List of Countries
  • For 7 days
  • Water Temperature
  • Weather Map
  • Weather Widgets
  • user-avatar
    Login

    Hourly Weather Madyar

    Today, 27 May, Wednesday

    Time Temperature Precipitation Wind Pressure Humidity
    00:00 +13°C° 0 mm 6 mps 757 mmHg 76%
    01:00 +12°C° 0 mm 7 mps 756 mmHg 75%
    02:00 +13°C° 0.1 mm 5 mps 756 mmHg 78%
    03:00 +12°C° 0.1 mm 4 mps 755 mmHg 80%
    04:00 +12°C° 0.1 mm 3 mps 755 mmHg 83%
    05:00 +12°C° 1.6 mm 4 mps 755 mmHg 83%
    06:00 +13°C° 1.6 mm 5 mps 754 mmHg 84%
    07:00 +12°C° 1.6 mm 7 mps 754 mmHg 84%
    08:00 +15°C° 0.8 mm 7 mps 753 mmHg 81%
    09:00 +16°C° 0.8 mm 8 mps 753 mmHg 78%
    10:00 +18°C° 0.8 mm 8 mps 753 mmHg 75%
    11:00 +20°C° 0 mm 8 mps 752 mmHg 72%
    12:00 +22°C° 0 mm 7 mps 752 mmHg 69%
    13:00 +24°C° 0 mm 7 mps 751 mmHg 66%
    14:00 +26°C° 0 mm 6 mps 751 mmHg 66%
    15:00 +27°C° 0 mm 6 mps 751 mmHg 66%
    16:00 +27°C° 0 mm 5 mps 751 mmHg 66%
    17:00 +26°C° 0.4 mm 5 mps 751 mmHg 71%
    18:00 +26°C° 0.4 mm 4 mps 751 mmHg 76%
    19:00 +25°C° 0.4 mm 4 mps 750 mmHg 82%
    20:00 +22°C° 0.1 mm 4 mps 751 mmHg 86%
    21:00 +20°C° 0.1 mm 5 mps 751 mmHg 90%
    22:00 +17°C° 0.1 mm 6 mps 751 mmHg 94%
    23:00 +16°C° 0 mm 5 mps 751 mmHg 94%

    Tomorrow, 28 May, Thursday

    Time Temperature Precipitation Wind Pressure Humidity
    00:00 +15°C° 0 mm 5 mps 752 mmHg 94%
    01:00 +14°C° 0 mm 5 mps 752 mmHg 94%
    02:00 +14°C° 0 mm 5 mps 752 mmHg 93%
    03:00 +13°C° 0 mm 5 mps 753 mmHg 92%
    04:00 +13°C° 0 mm 5 mps 753 mmHg 91%
    05:00 +13°C° 0 mm 5 mps 754 mmHg 89%
    06:00 +13°C° 0 mm 5 mps 754 mmHg 87%
    07:00 +13°C° 0 mm 5 mps 754 mmHg 86%
    08:00 +13°C° 0 mm 5 mps 754 mmHg 83%
    09:00 +14°C° 0 mm 5 mps 755 mmHg 80%
    10:00 +14°C° 0 mm 5 mps 755 mmHg 78%
    11:00 +15°C° 0 mm 4 mps 755 mmHg 72%
    12:00 +18°C° 0 mm 4 mps 755 mmHg 65%
    13:00 +19°C° 0 mm 4 mps 755 mmHg 59%
    14:00 +19°C° 0 mm 4 mps 755 mmHg 58%
    15:00 +20°C° 0 mm 4 mps 755 mmHg 57%
    16:00 +20°C° 0 mm 4 mps 755 mmHg 56%
    17:00 +20°C° 0 mm 4 mps 755 mmHg 60%
    18:00 +19°C° 0 mm 3 mps 755 mmHg 64%
    19:00 +19°C° 0 mm 3 mps 756 mmHg 69%
    20:00 +17°C° 0 mm 2 mps 756 mmHg 73%
    21:00 +16°C° 0 mm 2 mps 756 mmHg 77%
    22:00 +14°C° 0 mm 2 mps 756 mmHg 81%
    23:00 +14°C° 0 mm 2 mps 756 mmHg 82%

    Day after tomorrow, 29 May, Friday

    Time Temperature Precipitation Wind Pressure Humidity
    00:00 +13°C° 0 mm 2 mps 756 mmHg 84%
    01:00 +13°C° 0 mm 2 mps 757 mmHg 86%
    02:00 +12°C° 0 mm 2 mps 757 mmHg 86%
    03:00 +12°C° 0 mm 2 mps 757 mmHg 87%
    04:00 +11°C° 0 mm 1 mps 757 mmHg 87%
    05:00 +13°C° 0 mm 1 mps 757 mmHg 82%
    06:00 +14°C° 0 mm 1 mps 757 mmHg 77%
    07:00 +16°C° 0 mm 2 mps 757 mmHg 72%
    08:00 +17°C° 0 mm 2 mps 757 mmHg 66%
    09:00 +19°C° 0 mm 2 mps 757 mmHg 60%
    10:00 +20°C° 0 mm 2 mps 757 mmHg 53%
    11:00 +21°C° 0 mm 2 mps 757 mmHg 51%
    12:00 +21°C° 0 mm 2 mps 757 mmHg 49%
    13:00 +23°C° 0 mm 2 mps 757 mmHg 46%
    14:00 +23°C° 0 mm 2 mps 757 mmHg 46%
    15:00 +24°C° 0 mm 2 mps 756 mmHg 47%
    16:00 +24°C° 0 mm 2 mps 756 mmHg 47%
    17:00 +23°C° 0 mm 2 mps 756 mmHg 51%
    18:00 +23°C° 0 mm 1 mps 756 mmHg 56%
    19:00 +22°C° 0 mm 1 mps 755 mmHg 61%
    20:00 +20°C° 0 mm 1 mps 755 mmHg 64%
    21:00 +17°C° 0 mm 0 mps 756 mmHg 67%
    22:00 +15°C° 0 mm 0 mps 756 mmHg 70%
    23:00 +14°C° 0 mm 0 mps 755 mmHg 72%

    30 May, Saturday

    Time Temperature Precipitation Wind Pressure Humidity
    00:00 +14°C° 0 mm 0 mps 755 mmHg 74%
    01:00 +13°C° 0 mm 0 mps 755 mmHg 76%
    02:00 +13°C° 0 mm 0 mps 755 mmHg 78%
    03:00 +13°C° 0 mm 0 mps 755 mmHg 79%
    04:00 +13°C° 0 mm 0 mps 755 mmHg 81%
    05:00 +14°C° 0 mm 0 mps 755 mmHg 77%
    06:00 +16°C° 0 mm 0 mps 755 mmHg 73%
    07:00 +17°C° 0 mm 0 mps 755 mmHg 69%
    08:00 +19°C° 0 mm 0 mps 755 mmHg 64%
    09:00 +20°C° 0 mm 0 mps 755 mmHg 60%
    10:00 +22°C° 0 mm 0 mps 754 mmHg 56%
    11:00 +22°C° 0 mm 0 mps 754 mmHg 53%
    12:00 +25°C° 0 mm 1 mps 754 mmHg 51%
    13:00 +26°C° 0 mm 1 mps 754 mmHg 49%
    14:00 +26°C° 0 mm 1 mps 753 mmHg 48%
    15:00 +26°C° 0 mm 1 mps 753 mmHg 48%
    16:00 +26°C° 0 mm 1 mps 753 mmHg 47%
    17:00 +26°C° 0 mm 1 mps 752 mmHg 53%
    18:00 +25°C° 0 mm 1 mps 752 mmHg 58%
    19:00 +24°C° 0 mm 1 mps 752 mmHg 63%
    20:00 +21°C° 0 mm 2 mps 752 mmHg 70%
    21:00 +19°C° 0 mm 2 mps 751 mmHg 76%
    22:00 +17°C° 0 mm 3 mps 751 mmHg 83%
    23:00 +17°C° 0 mm 3 mps 751 mmHg 86%

    31 May, Sunday

    Time Temperature Precipitation Wind Pressure Humidity
    00:00 +16°C° 0 mm 3 mps 751 mmHg 89%
    01:00 +15°C° 0 mm 2 mps 750 mmHg 92%
    02:00 +14°C° 0 mm 3 mps 750 mmHg 92%
    03:00 +13°C° 0 mm 3 mps 749 mmHg 92%
    04:00 +13°C° 0 mm 3 mps 749 mmHg 92%
    05:00 +14°C° 0 mm 3 mps 749 mmHg 88%
    06:00 +16°C° 0 mm 3 mps 748 mmHg 85%
    07:00 +17°C° 0 mm 4 mps 748 mmHg 81%
    08:00 +18°C° 0 mm 4 mps 747 mmHg 78%
    09:00 +19°C° 0 mm 4 mps 746 mmHg 74%
    10:00 +20°C° 0 mm 4 mps 746 mmHg 71%
    11:00 +20°C° 0.1 mm 4 mps 745 mmHg 70%
    12:00 +21°C° 0.1 mm 4 mps 744 mmHg 69%
    13:00 +21°C° 0.1 mm 4 mps 743 mmHg 68%
    14:00 +21°C° 0.4 mm 4 mps 743 mmHg 71%
    15:00 +20°C° 0.4 mm 3 mps 742 mmHg 73%
    16:00 +20°C° 0.4 mm 3 mps 741 mmHg 76%
    17:00 +19°C° 0.6 mm 3 mps 740 mmHg 79%
    18:00 +18°C° 0.6 mm 3 mps 740 mmHg 83%
    19:00 +17°C° 0.6 mm 3 mps 739 mmHg 86%
    20:00 +16°C° 2.4 mm 3 mps 739 mmHg 87%
    21:00 +15°C° 2.4 mm 4 mps 738 mmHg 88%
    22:00 +14°C° 2.4 mm 5 mps 738 mmHg 89%
    23:00 +13°C° 3.3 mm 6 mps 737 mmHg 90%

    1 June, Monday

    Time Temperature Precipitation Wind Pressure Humidity
    00:00 +10°C° 3.3 mm 7 mps 737 mmHg 90%
    01:00 +9°C° 3.3 mm 8 mps 737 mmHg 91%
    02:00 +7°C° 0.7 mm 8 mps 737 mmHg 90%
    03:00 +7°C° 0.7 mm 8 mps 737 mmHg 89%
    04:00 +6°C° 0.7 mm 8 mps 737 mmHg 88%
    05:00 +6°C° 0.1 mm 8 mps 738 mmHg 85%
    06:00 +6°C° 0.1 mm 8 mps 739 mmHg 82%
    07:00 +6°C° 0.1 mm 8 mps 740 mmHg 79%
    08:00 +7°C° 0 mm 8 mps 740 mmHg 72%
    09:00 +9°C° 0 mm 8 mps 741 mmHg 66%
    10:00 +10°C° 0 mm 8 mps 742 mmHg 60%
    11:00 +10°C° 0.1 mm 9 mps 743 mmHg 59%
    12:00 +10°C° 0.1 mm 9 mps 743 mmHg 58%
    13:00 +11°C° 0.1 mm 9 mps 744 mmHg 57%
    14:00 +11°C° 0.1 mm 9 mps 744 mmHg 57%
    15:00 +10°C° 0.1 mm 8 mps 745 mmHg 58%
    16:00 +10°C° 0.1 mm 8 mps 745 mmHg 58%
    17:00 +10°C° 0 mm 7 mps 745 mmHg 61%
    18:00 +9°C° 0 mm 6 mps 746 mmHg 63%
    19:00 +9°C° 0 mm 6 mps 746 mmHg 66%
    20:00 +8°C° 0 mm 5 mps 747 mmHg 70%
    21:00 +7°C° 0 mm 4 mps 747 mmHg 74%
    22:00 +5°C° 0 mm 3 mps 747 mmHg 78%
    23:00 +5°C° 0 mm 3 mps 748 mmHg 81%
    Show more